Location: Caltech
(34.1382°N, 118.1253°W)
Time: 21:30:07
(UTC-07:00)

NOAA 19 - Visible Passes

Search period start: 02 September 2015 00:00
Search period end: 12 September 2015 00:00
Orbit: 843 x 862 km, 99.0° (Epoch: 02 September)

Date Brightness Start Highest point End Pass type
(mag) Time Alt. Az. Time Alt. Az. Time Alt. Az.
02 Sep 6.2 03:21:32 10° NNE 03:25:14 43° NNE 03:25:14 43° NNE visible
02 Sep 7.1 05:04:54 10° NW 05:07:15 12° WNW 05:07:16 12° WNW visible
03 Sep 6.5 03:10:20 10° NNE 03:13:44 37° NE 03:13:44 37° NE visible
03 Sep 6.9 04:52:44 10° NNW 04:55:46 16° WNW 04:55:46 16° WNW visible
04 Sep 6.9 02:59:13 10° NNE 03:02:13 30° NE 03:02:13 30° NE visible
04 Sep 6.7 04:40:54 10° NNW 04:44:15 20° WNW 04:44:15 20° WNW visible
05 Sep 7.2 02:48:08 10° NNE 02:50:43 24° NE 02:50:43 24° NE visible
05 Sep 6.5 04:29:14 10° NNW 04:32:45 24° NW 04:32:45 24° NW visible
06 Sep 7.5 02:37:10 10° NE 02:39:13 20° NE 02:39:13 20° NE visible
06 Sep 6.4 04:17:40 10° N 04:21:15 29° NW 04:21:15 29° NW visible
07 Sep 7.8 02:26:19 10° NE 02:27:42 15° ENE 02:27:42 15° ENE visible
07 Sep 6.3 04:06:12 10° N 04:09:45 33° NNW 04:09:45 33° NNW visible
08 Sep 8.0 02:15:39 10° NE 02:16:12 12° ENE 02:16:12 12° ENE visible
08 Sep 6.2 03:54:46 10° N 03:58:14 36° NNW 03:58:14 36° NNW visible
09 Sep 6.3 03:43:25 10° N 03:46:44 37° N 03:46:44 37° N visible
10 Sep 6.5 03:32:06 10° NNE 03:35:13 35° N 03:35:13 35° N visible
11 Sep 6.7 03:20:51 10° NNE 03:23:43 32° NNE 03:23:43 32° NNE visible
11 Sep 7.2 05:04:04 10° NW 05:05:45 13° NW 05:05:45 13° NW visible
